sat.trackr.live / text

‹ back to catalog

TOMORROW-S10

NORAD 67398 · 2026-004AM

PAYLOAD ACTIVE UNKNOWN

§ Identity

Operator
Country
US
Launch date
2026-01-11
Launch site
AFWTR
Launch vehicle
Mass (kg)
RCS (m²)

External: N2YO · Heavens-Above · Gunter

§ Orbital elements

Epoch: 2026-09-20T23:27:47.587968Z

Period
94.72 min
Inclination
97.4644°
Eccentricity
0.0006742
Mean motion
15.20229147 rev/d
Perigee alt
500.5 km
Apogee alt
509.8 km
Semi-major
6,883.3 km
B*
1.1739e-4
RAAN
262.1317°
Arg perigee
24.9151°
Mean anomaly
335.2408°
Rev number
3,831

§ Raw data

TOMORROW-S101 67398U 26004AM  26263.97763412  .00002477  00000+0  11739-3 0  99962 67398  97.4644 262.1317 0006742  24.9151 335.2408 15.20229147 38315

JSON: /api/v1/satellites/67398 · /tle

For live sub-satellite position, see the globe view (requires WebGL).

§ Visibility from observer

Set your observer location to see the next 7 days of passes ≥ 10°. The values pass through the URL so the page stays shareable.

No JS? Fill the form by hand. The geolocation button needs JavaScript.